This is the latest recevied weather packets stored in our database for station/object SV9FBP. If no packets are shown the sender has not sent any weather packets the latest 10 day(s).
| Time | Temp. | Humidity | Pressure | Rain* | Wind** | Luminosity | Snow |
|---|---|---|---|---|---|---|---|
| 1778157785 | 23.89° C | 43% | 1018.4 hPa | 0 mm | - | - | - |
| 1778156883 | 23.89° C | 36% | 1018.3 hPa | 0 mm | - | - | - |
| 1778155981 | 24.44° C | 43% | 1018.4 hPa | 0 mm | - | - | - |
| 1778155078 | 24.44° C | 43% | 1018.5 hPa | 0 mm | - | - | - |
| 1778154176 | 24.44° C | 50% | 1018.4 hPa | 0 mm | - | - | - |
| 1778153273 | 25° C | 52% | 1018.2 hPa | 0 mm | - | - | - |
| 1778152371 | 24.44° C | 50% | 1018.4 hPa | 0 mm | - | - | - |
| 1778151470 | 24.44° C | 55% | 1018.2 hPa | 0 mm | - | - | - |
| 1778150567 | 24.44° C | 61% | 1018.2 hPa | 0 mm | - | - | - |
| 1778149665 | 23.33° C | 63% | 1018.4 hPa | 0 mm | - | - | - |
| 1778148763 | 22.22° C | 70% | 1018.6 hPa | 0 mm | - | - | - |
| 1778147861 | 21.67° C | 71% | 1018.7 hPa | 0 mm | - | - | - |
| 1778146958 | 21.67° C | 71% | 1018.8 hPa | 0 mm | - | - | - |
| 1778146057 | 21.67° C | 74% | 1018.9 hPa | 0 mm | - | - | - |
| 1778145155 | 21.11° C | 77% | 1018.7 hPa | 0 mm | - | - | - |
| 1778144252 | 21.11° C | 80% | 1018.4 hPa | 0 mm | - | - | - |
| 1778143350 | 20.56° C | 80% | 1018.4 hPa | 0 mm | - | - | - |
| 1778142447 | 20.56° C | 80% | 1018.6 hPa | 0 mm | - | - | - |
| 1778141546 | 20° C | 78% | 1018.6 hPa | 0 mm | - | - | - |
| 1778140644 | 20° C | 77% | 1018.2 hPa | 0 mm | - | - | - |
| 1778139742 | 20° C | 76% | 1018.3 hPa | 0 mm | - | - | - |
| 1778138839 | 19.44° C | 74% | 1018 hPa | 0 mm | - | - | - |
| 1778137937 | 19.44° C | 73% | 1017.8 hPa | 0 mm | - | - | - |
| 1778137035 | 19.44° C | 72% | 1017.6 hPa | 0 mm | - | - | - |
| 1778136134 | 18.89° C | 72% | 1017.4 hPa | 0 mm | - | - | - |
* Rain latest hour (hover to see other rain measurements)
** Current wind speed in m/s (hover to see current wind gust speed)